TimeCST,TemperatureF,Dew PointF,Humidity,Sea Level PressureIn,VisibilityMPH,Wind Direction,Wind SpeedMPH,Gust SpeedMPH,PrecipitationIn,Events,Conditions,WindDirDegrees,DateUTC
12:56 AM,27.1,24.1,88,30.40,10.0,SE,3.5,-,N/A,,Clear,130,2012-11-29 06:56:00
1:56 AM,30.0,26.1,85,30.40,9.0,Calm,Calm,-,N/A,,Clear,0,2012-11-29 07:56:00
2:56 AM,29.1,26.1,88,30.39,9.0,SE,3.5,-,N/A,,Clear,140,2012-11-29 08:56:00
3:56 AM,29.1,25.2,85,30.38,9.0,SE,3.5,-,N/A,,Clear,130,2012-11-29 09:56:00
4:56 AM,29.1,25.2,85,30.39,9.0,Calm,Calm,-,N/A,,Clear,0,2012-11-29 10:56:00
5:56 AM,29.1,25.2,85,30.40,8.0,ESE,4.6,-,N/A,,Clear,120,2012-11-29 11:56:00
6:56 AM,27.1,24.1,88,30.41,7.0,Calm,Calm,-,N/A,,Clear,0,2012-11-29 12:56:00
7:56 AM,32.0,28.0,85,30.41,6.0,SE,3.5,-,N/A,,Haze,140,2012-11-29 13:56:00
8:56 AM,37.9,31.1,76,30.40,7.0,South,5.8,-,N/A,,Clear,170,2012-11-29 14:56:00
9:56 AM,43.9,32.9,65,30.39,9.0,South,10.4,-,N/A,,Clear,170,2012-11-29 15:56:00
10:56 AM,47.8,34.0,59,30.36,10.0,SSW,9.2,-,N/A,,Clear,210,2012-11-29 16:56:00
11:56 AM,50.9,34.0,52,30.33,10.0,South,10.4,-,N/A,,Clear,190,2012-11-29 17:56:00
12:56 PM,54.0,32.0,43,30.30,10.0,South,13.8,-,N/A,,Clear,190,2012-11-29 18:56:00
1:56 PM,54.9,34.0,45,30.27,10.0,South,11.5,-,N/A,,Clear,180,2012-11-29 19:56:00
2:56 PM,54.9,32.0,42,30.26,10.0,SSW,10.4,-,N/A,,Clear,200,2012-11-29 20:56:00
3:56 PM,50.9,34.9,54,30.26,10.0,South,8.1,-,N/A,,Clear,180,2012-11-29 21:56:00
4:56 PM,47.8,32.0,54,30.25,10.0,South,8.1,-,N/A,,Clear,170,2012-11-29 22:56:00
5:56 PM,46.9,32.0,56,30.26,10.0,SSE,8.1,-,N/A,,Clear,160,2012-11-29 23:56:00
6:56 PM,43.9,32.0,63,30.27,10.0,SSE,3.5,-,N/A,,Clear,160,2012-11-30 00:56:00
7:56 PM,43.9,32.0,63,30.27,10.0,SSE,6.9,-,N/A,,Clear,160,2012-11-30 01:56:00
8:56 PM,41.0,31.1,68,30.26,10.0,South,6.9,-,N/A,,Clear,170,2012-11-30 02:56:00
9:56 PM,41.0,31.1,68,30.26,10.0,Calm,Calm,-,N/A,,Clear,0,2012-11-30 03:56:00
10:56 PM,41.9,31.1,66,30.25,10.0,South,5.8,-,N/A,,Clear,170,2012-11-30 04:56:00
11:56 PM,41.0,31.1,68,30.25,10.0,SSE,8.1,-,N/A,,Clear,160,2012-11-30 05:56:00